GW1961 Weather Reports


Display with metric or nautical units.
time (UTC)temp
F
wind
direction
speed
MPH
gust
MPH
rain 1hr
in
rain 24hr
in
rain mn
in
humidity
%
barometer
mb
20260510212520 83 211 2.0 10.0 0.00 0.00 0.00 53 1011.0
20260510212022 82 200 2.0 5.0 0.00 0.00 0.00 51 1011.0
20260510211544 83 240 0.0 9.0 0.00 0.00 0.00 52 1011.0
20260510211021 82 314 3.0 9.0 0.00 0.00 0.00 52 1010.9
20260510210521 81 257 2.0 10.0 0.00 0.00 0.00 54 1010.9
20260510210041 81 213 2.0 10.0 0.00 0.00 0.00 56 1010.9
20260510205520 81 279 2.0 10.0 0.00 0.00 0.00 55 1010.9
20260510205020 82 261 2.0 8.0 0.00 0.00 0.00 56 1010.9
20260510204539 81 312 4.0 8.0 0.00 0.00 0.00 54 1011.1
20260510204022 81 0 2.0 7.0 0.00 0.00 0.00 55 1011.1
20260510203522 80 264 2.0 9.0 0.00 0.00 0.00 56 1011.0
20260510203049 81 0 1.0 9.0 0.00 0.00 0.00 55 1011.0
20260510202522 81 254 2.0 11.0 0.00 0.00 0.00 56 1011.0
20260510202023 81 257 1.0 11.0 0.00 0.00 0.00 57 1011.2
20260510201544 80 283 4.0 11.0 0.00 0.00 0.00 58 1011.2
20260510201020 79 292 4.0 11.0 0.00 0.00 0.00 57 1011.2
20260510200521 80 271 3.0 8.0 0.00 0.00 0.00 57 1011.2
20260510200045 80 188 3.0 9.0 0.00 0.00 0.00 58 1011.1
20260510195520 79 175 1.0 10.0 0.00 0.00 0.00 59 1011.2
20260510195024 79 294 3.0 10.0 0.00 0.00 0.00 59 1011.3
20260510194554 79 322 5.0 11.0 0.00 0.00 0.00 59 1011.4
20260510194021 79 234 2.0 11.0 0.00 0.00 0.00 60 1011.2
20260510193521 79 275 2.0 8.0 0.00 0.00 0.00 61 1011.3
20260510193039 79 296 3.0 8.0 0.00 0.00 0.00 61 1011.2
20260510192521 79 254 1.0 7.0 0.00 0.00 0.00 61 1011.4
20260510192021 78 263 0.0 6.0 0.00 0.00 0.00 63 1011.4
20260510191545 78 212 1.0 8.0 0.00 0.00 0.00 63 1011.5
20260510191022 78 275 2.0 8.0 0.00 0.00 0.00 63 1011.3
20260510190522 78 302 2.0 7.0 0.00 0.00 0.00 63 1011.1
20260510190052 78 250 2.0 7.0 0.00 0.00 0.00 63 1011.2
20260510185521 78 195 1.0 8.0 0.00 0.00 0.00 63 1011.2
20260510185022 78 273 3.0 8.0 0.00 0.00 0.00 62 1011.2
20260510184545 79 286 3.0 8.0 0.00 0.00 0.00 61 1010.8
20260510184021 78 240 2.0 9.0 0.00 0.00 0.00 62 1010.9
20260510183525 79 259 3.0 9.0 0.00 0.00 0.00 59 1011.0
20260510183042 79 296 2.0 8.0 0.00 0.00 0.00 58 1010.9
20260510182521 79 269 1.0 7.0 0.00 0.00 0.00 58 1010.9
20260510182021 79 194 1.0 5.0 0.00 0.00 0.00 51 1010.7
20260510181539 79 0 0.0 5.0 0.00 0.00 0.00 52 1010.7
20260510181021 79 199 2.0 5.0 0.00 0.00 0.00 50 1010.6
20260510180521 79 0 0.0 6.0 0.00 0.00 0.00 51 1010.6
20260510180040 79 0 0.0 6.0 0.00 0.00 0.00 52 1010.6
20260510175521 79 0 2.0 6.0 0.00 0.00 0.00 51 1010.6
20260510175021 79 283 1.0 3.0 0.00 0.00 0.00 52 1010.7
20260510174534 78 0 0.0 3.0 0.00 0.00 0.00 52 1010.7
20260510174127 78 39 0.0 4.0 0.00 0.00 0.00 50 1010.8
20260510172521 77 0 0.0 3.0 0.00 0.00 0.00 50 1010.8
20260510172022 77 179 0.0 3.0 0.00 0.00 0.00 50 1010.8
20260510171544 77 0 0.0 3.0 0.00 0.00 0.00 52 1010.6
20260510171022 77 0 1.0 3.0 0.00 0.00 0.00 50 1010.7
20260510170522 76 286 0.0 4.0 0.00 0.00 0.00 51 1010.6
20260510170044 77 0 0.0 4.0 0.00 0.00 0.00 52 1010.6
20260510165521 77 169 1.0 4.0 0.00 0.00 0.00 52 1010.6
20260510165021 76 207 0.0 2.0 0.00 0.00 0.00 54 1010.6
20260510164539 76 0 0.0 2.0 0.00 0.00 0.00 54 1010.4
20260510164021 75 146 0.0 2.0 0.00 0.00 0.00 55 1010.3
20260510163521 75 0 0.0 2.0 0.00 0.00 0.00 57 1010.2
20260510163103 74 0 0.0 4.0 0.00 0.00 0.00 57 1010.4
20260510162522 74 0 0.0 4.0 0.00 0.00 0.00 56 1010.3
20260510162020 74 96 0.0 2.0 0.00 0.00 0.00 61 1010.4
20260510161556 73 85 0.0 2.0 0.00 0.00 0.00 62 1010.3
20260510161022 73 109 0.0 1.0 0.00 0.00 0.00 63 1010.3
20260510160521 72 0 0.0 0.0 0.00 0.00 0.00 65 1010.3
20260510160054 72 0 0.0 0.0 0.00 0.00 0.00 66 1010.3
20260510155529 71 0 0.0 0.0 0.00 0.00 0.00 70 1010.3
20260510155020 70 0 0.0 0.0 0.00 0.00 0.00 79 1010.3
20260510154545 69 0 0.0 0.0 0.00 0.00 0.00 80 1010.3
20260510154021 68 0 0.0 0.0 0.00 0.00 0.00 81 1010.3
20260510153523 68 0 0.0 0.0 0.00 0.00 0.00 83 1010.3
20260510153045 67 0 0.0 0.0 0.00 0.00 0.00 83 1010.4
20260510152525 66 0 0.0 0.0 0.00 0.00 0.00 85 1010.3
20260510152023 65 0 0.0 0.0 0.00 0.00 0.00 86 1010.3
20260510151536 64 0 0.0 0.0 0.00 0.00 0.00 87 1010.2
20260510151023 63 0 0.0 0.0 0.00 0.00 0.00 88 1010.2
20260510150522 62 0 0.0 0.0 0.00 0.00 0.00 89 1010.2
20260510150106 62 0 0.0 0.0 0.00 0.00 0.00 89 1010.2
20260510145523 61 0 0.0 0.0 0.00 0.00 0.00 90 1010.2
20260510145020 60 0 0.0 0.0 0.00 0.00 0.00 90 1010.2
20260510144546 59 0 0.0 0.0 0.00 0.00 0.00 91 1010.1
20260510144027 59 0 0.0 0.0 0.00 0.00 0.00 91 1010.1
20260510143524 59 0 0.0 0.0 0.00 0.00 0.00 91 1010.1
20260510143051 58 0 0.0 0.0 0.00 0.00 0.00 92 1010.0
20260510142521 58 0 0.0 0.0 0.00 0.00 0.00 92 1010.0
20260510142022 57 0 0.0 0.0 0.00 0.00 0.00 92 1009.9
20260510141542 57 0 0.0 0.0 0.00 0.00 0.00 92 1010.0
20260510141021 56 0 0.0 0.0 0.00 0.00 0.00 92 1009.9
20260510140520 56 0 0.0 0.0 0.00 0.00 0.00 92 1009.8
20260510140038 56 0 0.0 0.0 0.00 0.00 0.00 92 1009.8
20260510135522 55 0 0.0 0.0 0.00 0.00 0.00 92 1009.8
20260510135021 55 0 0.0 0.0 0.00 0.00 0.00 92 1009.7
20260510134535 55 0 0.0 0.0 0.00 0.00 0.00 92 1009.6
20260510134019 55 0 0.0 0.0 0.00 0.00 0.00 92 1009.6
20260510133520 55 0 0.0 0.0 0.00 0.00 0.00 92 1009.6
20260510133044 55 0 0.0 0.0 0.00 0.00 0.00 92 1009.5
20260510132521 55 0 0.0 0.0 0.00 0.00 0.00 92 1009.4
20260510132021 55 0 0.0 0.0 0.00 0.00 0.00 92 1009.3
20260510131543 54 0 0.0 0.0 0.00 0.00 0.00 92 1009.3
20260510131023 54 0 0.0 0.0 0.00 0.00 0.00 92 1009.5
20260510130520 54 0 0.0 0.0 0.00 0.00 0.00 92 1009.4
20260510130041 55 0 0.0 0.0 0.00 0.00 0.00 92 1009.4
20260510125521 54 0 0.0 0.0 0.00 0.00 0.00 92 1009.4
20260510125021 54 0 0.0 0.0 0.00 0.00 0.00 92 1009.4
20260510124537 54 0 0.0 0.0 0.00 0.00 0.00 92 1009.5
20260510124021 54 0 0.0 0.0 0.00 0.00 0.00 92 1009.5
20260510123523 54 0 0.0 0.0 0.00 0.00 0.00 92 1009.5
20260510123035 55 0 0.0 0.0 0.00 0.00 0.00 92 1009.6
20260510122521 55 0 0.0 0.0 0.00 0.00 0.00 91 1009.5
20260510122020 55 0 0.0 0.0 0.00 0.00 0.00 91 1009.6
20260510121544 55 0 0.0 0.0 0.00 0.00 0.00 92 1009.5
20260510121024 55 0 0.0 0.0 0.00 0.00 0.00 92 1009.5
20260510120522 54 0 0.0 0.0 0.00 0.00 0.00 91 1009.6
20260510120044 55 0 0.0 0.0 0.00 0.00 0.00 91 1009.5
20260510115549 55 0 0.0 0.0 0.00 0.00 0.00 92 1009.6
20260510115025 55 0 0.0 0.0 0.00 0.00 0.00 91 1009.5
20260510114542 55 0 0.0 0.0 0.00 0.00 0.00 91 1009.7
20260510114020 55 0 0.0 0.0 0.00 0.00 0.00 91 1009.6
20260510113521 55 0 0.0 0.0 0.00 0.00 0.00 91 1009.6
20260510113040 54 0 0.0 0.0 0.00 0.00 0.00 91 1009.6
20260510112521 55 0 0.0 0.0 0.00 0.00 0.00 91 1009.6
20260510112020 55 0 0.0 0.0 0.00 0.00 0.00 91 1009.6
20260510111541 55 0 0.0 0.0 0.00 0.00 0.00 91 1009.6
20260510111024 55 0 0.0 0.0 0.00 0.00 0.00 91 1009.5
20260510110521 55 0 0.0 0.0 0.00 0.00 0.00 91 1009.4
20260510110045 55 0 0.0 0.0 0.00 0.00 0.00 91 1009.4
20260510105521 55 0 0.0 0.0 0.00 0.00 0.00 91 1009.4
20260510105021 55 0 0.0 0.0 0.00 0.00 0.00 91 1009.3
20260510104550 55 0 0.0 0.0 0.00 0.00 0.00 91 1009.3
20260510104021 55 0 0.0 0.0 0.00 0.00 0.00 91 1009.5
20260510103521 55 0 0.0 0.0 0.00 0.00 0.00 91 1009.5
20260510103047 55 0 0.0 0.0 0.00 0.00 0.00 91 1009.5
20260510102521 55 0 0.0 0.0 0.00 0.00 0.00 91 1009.5
20260510102023 55 0 0.0 0.0 0.00 0.00 0.00 91 1009.4
20260510101546 55 0 0.0 0.0 0.00 0.00 0.00 91 1009.5
20260510101021 56 0 0.0 0.0 0.00 0.00 0.00 91 1009.4
20260510100520 56 0 0.0 0.0 0.00 0.00 0.00 91 1009.4
20260510100034 56 0 0.0 0.0 0.00 0.00 0.00 90 1009.4
20260510095521 56 0 0.0 0.0 0.00 0.00 0.00 91 1009.3
20260510095020 56 0 0.0 0.0 0.00 0.00 0.00 90 1009.3
20260510094545 56 0 0.0 0.0 0.00 0.00 0.00 90 1009.3
20260510094020 56 0 0.0 0.0 0.00 0.00 0.00 90 1009.2
20260510093522 56 0 0.0 0.0 0.00 0.00 0.00 90 1009.3
20260510093056 56 0 0.0 0.0 0.00 0.00 0.00 90 1009.3
20260510092521 56 0 0.0 0.0 0.00 0.00 0.00 90 1009.3
20260510092022 57 0 0.0 0.0 0.00 0.00 0.00 90 1009.3
20260510091541 57 0 0.0 0.0 0.00 0.00 0.00 90 1009.3
20260510091020 57 0 0.0 0.0 0.00 0.00 0.00 90 1009.3
20260510090520 57 0 0.0 0.0 0.00 0.00 0.00 90 1009.4
20260510090040 57 0 0.0 0.0 0.00 0.00 0.00 90 1009.3
20260510085521 57 0 0.0 0.0 0.00 0.00 0.00 89 1009.4
20260510085020 57 0 0.0 0.0 0.00 0.00 0.00 89 1009.4
20260510084537 57 0 0.0 0.0 0.00 0.00 0.00 89 1009.4
20260510084021 57 0 0.0 0.0 0.00 0.00 0.00 89 1009.4
20260510083520 57 0 0.0 0.0 0.00 0.00 0.00 89 1009.3
20260510083049 58 0 0.0 0.0 0.00 0.00 0.00 89 1009.2
20260510082520 58 0 0.0 0.0 0.00 0.00 0.00 89 1009.2
20260510082020 58 0 0.0 0.0 0.00 0.00 0.00 89 1009.3
20260510081606 58 0 0.0 0.0 0.00 0.00 0.00 89 1009.3
20260510081025 58 0 0.0 0.0 0.00 0.00 0.00 89 1009.5
20260510080522 58 0 0.0 0.0 0.00 0.00 0.00 89 1009.5
20260510080042 58 0 0.0 0.0 0.00 0.00 0.00 88 1009.4
20260510075520 58 0 0.0 0.0 0.00 0.00 0.00 88 1009.5
20260510075020 58 0 0.0 0.0 0.00 0.00 0.00 88 1009.4
20260510074539 59 0 0.0 0.0 0.00 0.00 0.00 88 1009.5
20260510074024 59 0 0.0 0.0 0.00 0.00 0.00 88 1009.5
20260510073521 59 0 0.0 0.0 0.00 0.00 0.00 88 1009.6
20260510073050 59 0 0.0 0.0 0.00 0.00 0.00 88 1009.6
20260510072526 59 0 0.0 0.0 0.00 0.00 0.00 88 1009.8
20260510072020 59 0 0.0 0.0 0.00 0.00 0.00 88 1009.8
20260510071536 59 0 0.0 0.0 0.00 0.00 0.00 87 1009.9
20260510071020 59 0 0.0 0.0 0.00 0.00 0.00 87 1009.8
20260510070519 59 0 0.0 0.0 0.00 0.00 0.00 87 1009.8
20260510070045 59 0 0.0 0.0 0.00 0.00 0.00 87 1010.0
20260510065521 60 0 0.0 0.0 0.00 0.00 0.00 86 1010.0
20260510065022 60 0 0.0 0.0 0.00 0.00 0.00 86 1010.0
20260510064553 60 0 0.0 0.0 0.00 0.00 0.00 86 1010.0
20260510064020 60 0 0.0 0.0 0.00 0.00 0.00 86 1010.0
20260510063518 60 0 0.0 0.0 0.00 0.00 0.00 86 1010.0
20260510063045 60 0 0.0 0.0 0.00 0.00 0.00 86 1010.0
20260510062518 60 0 0.0 0.0 0.00 0.00 0.00 86 1009.9
20260510062022 60 0 0.0 0.0 0.00 0.00 0.00 86 1009.9
20260510061544 61 0 0.0 0.0 0.00 0.00 0.00 85 1009.9
20260510061021 61 0 0.0 0.0 0.00 0.00 0.00 85 1010.0
20260510060518 61 0 0.0 0.0 0.00 0.00 0.00 85 1010.0
20260510060047 61 0 0.0 0.0 0.00 0.00 0.00 85 1010.0
20260510055521 61 0 0.0 0.0 0.00 0.00 0.00 85 1009.9
20260510055020 62 0 0.0 0.0 0.00 0.00 0.00 85 1009.8
20260510054545 62 0 0.0 0.0 0.00 0.00 0.00 85 1009.8
20260510054024 62 0 0.0 0.0 0.00 0.00 0.00 85 1009.9
20260510053520 62 0 0.0 0.0 0.00 0.00 0.00 84 1009.8
20260510053059 62 0 0.0 0.0 0.00 0.00 0.00 84 1009.8
20260510052519 62 0 0.0 0.0 0.00 0.00 0.00 84 1009.8
20260510052022 62 0 0.0 0.0 0.00 0.00 0.00 84 1009.8
20260510051551 63 0 0.0 0.0 0.00 0.00 0.00 83 1009.8
20260510051024 63 0 0.0 0.0 0.00 0.00 0.00 83 1009.8
20260510050519 63 0 0.0 0.0 0.00 0.00 0.00 83 1009.8
20260510050043 63 0 0.0 0.0 0.00 0.00 0.00 83 1009.9
20260510045523 63 0 0.0 0.0 0.00 0.00 0.00 83 1009.8
20260510045018 64 0 0.0 0.0 0.00 0.00 0.00 82 1009.9
20260510044554 64 0 0.0 0.0 0.00 0.00 0.00 82 1009.8
20260510044020 64 0 0.0 0.0 0.00 0.00 0.00 82 1009.8
20260510043521 64 0 0.0 0.0 0.00 0.00 0.00 81 1009.8
20260510043044 64 0 0.0 0.0 0.00 0.00 0.00 81 1009.7
20260510042521 65 0 0.0 0.0 0.00 0.00 0.00 81 1009.7
20260510042017 65 0 0.0 0.0 0.00 0.00 0.00 80 1009.6
20260510041544 65 0 0.0 0.0 0.00 0.00 0.00 80 1009.6
20260510041020 66 0 0.0 0.0 0.00 0.00 0.00 79 1009.5
20260510040527 66 0 0.0 0.0 0.00 0.00 0.00 79 1009.5
20260510040046 66 0 0.0 0.0 0.00 0.00 0.00 78 1009.5
20260510035519 67 0 0.0 0.0 0.00 0.00 0.00 78 1009.5
20260510035023 67 0 0.0 0.0 0.00 0.00 0.00 77 1009.4
20260510034545 67 0 0.0 0.0 0.00 0.00 0.00 76 1009.5
20260510034021 68 0 0.0 0.0 0.00 0.00 0.00 76 1009.4
20260510033518 68 0 0.0 0.0 0.00 0.00 0.00 75 1009.3
20260510033056 69 0 0.0 0.0 0.00 0.00 0.00 74 1009.3
20260510032518 69 0 0.0 0.0 0.00 0.00 0.00 73 1009.3
20260510032025 70 0 0.0 0.0 0.00 0.00 0.00 73 1009.3
20260510031540 70 0 0.0 0.0 0.00 0.00 0.00 72 1009.3
20260510031021 70 0 0.0 0.0 0.00 0.00 0.00 72 1009.3
20260510030528 71 0 0.0 0.0 0.00 0.00 0.00 71 1009.1
20260510030055 71 0 0.0 0.0 0.00 0.00 0.00 69 1009.1
20260510025520 72 0 0.0 0.0 0.00 0.00 0.00 69 1009.0
20260510025025 72 0 0.0 0.0 0.00 0.00 0.00 67 1009.0
20260510024536 73 0 0.0 0.0 0.00 0.00 0.00 65 1008.9
20260510024020 74 0 0.0 0.0 0.00 0.00 0.00 63 1008.8
20260510023520 75 0 0.0 0.0 0.00 0.00 0.00 62 1008.8
20260510023042 75 0 0.0 0.0 0.00 0.00 0.00 60 1008.7
20260510022521 76 0 0.0 0.0 0.00 0.00 0.00 60 1008.6
20260510022020 76 0 0.0 0.0 0.00 0.00 0.00 57 1008.7
20260510021539 77 0 0.0 0.0 0.00 0.00 0.00 57 1008.6
20260510021019 78 0 0.0 4.0 0.00 0.00 0.00 55 1008.6
20260510020519 78 0 0.0 5.0 0.00 0.00 0.00 54 1008.6
20260510020034 78 0 2.0 5.0 0.00 0.00 0.00 52 1008.6
20260510015520 79 0 0.0 4.0 0.00 0.00 0.00 51 1008.8
20260510015029 79 0 1.0 4.0 0.00 0.00 0.00 51 1008.8
20260510014543 79 270 1.0 5.0 0.00 0.00 0.00 50 1008.8
20260510014024 80 255 0.0 5.0 0.00 0.00 0.00 49 1008.8
20260510013523 80 254 1.0 3.0 0.00 0.00 0.00 49 1008.6
20260510013043 81 0 1.0 5.0 0.00 0.00 0.00 47 1008.8
20260510012522 81 281 1.0 7.0 0.00 0.00 0.00 44 1008.7
20260510012021 80 259 2.0 7.0 0.00 0.00 0.00 42 1008.8
20260510011542 81 329 2.0 7.0 0.00 0.00 0.00 44 1008.8
20260510011021 81 266 2.0 6.0 0.00 0.00 0.00 40 1008.9
20260510010523 81 313 1.0 6.0 0.00 0.00 0.00 41 1009.0
20260510010041 81 234 1.0 4.0 0.00 0.00 0.00 42 1008.9
20260510005521 81 292 0.0 7.0 0.00 0.00 0.00 44 1009.1
20260510005023 81 323 2.0 7.0 0.00 0.00 0.00 38 1009.0
20260510004540 81 294 1.0 6.0 0.00 0.00 0.00 39 1009.1
20260510004021 81 307 2.0 6.0 0.00 0.00 0.00 40 1009.1
20260510003521 82 323 1.0 4.0 0.00 0.00 0.00 42 1009.2
20260510003051 82 0 1.0 6.0 0.00 0.00 0.00 45 1009.1
20260510002522 81 252 1.0 6.0 0.00 0.00 0.00 44 1009.1
20260510002025 81 0 1.0 5.0 0.00 0.00 0.00 44 1009.1
20260510001543 81 0 1.0 6.0 0.00 0.00 0.00 45 1009.1
20260510001023 81 238 2.0 7.0 0.00 0.00 0.00 43 1009.2
20260510000523 81 0 0.0 7.0 0.00 0.00 0.00 42 1009.2
20260510000052 81 244 1.0 7.0 0.00 0.00 0.00 42 1009.3
20260509235521 81 243 1.0 6.0 0.00 0.00 0.00 45 1009.4
20260509235024 81 230 1.0 6.0 0.00 0.00 0.00 45 1009.5
20260509234553 81 276 0.0 7.0 0.00 0.00 0.00 45 1009.5
20260509234021 81 257 0.0 7.0 0.00 0.00 0.00 46 1009.5
20260509233521 81 281 1.0 8.0 0.00 0.00 0.00 45 1009.5
20260509233043 81 5 3.0 8.0 0.00 0.00 0.00 46 1009.5
20260509232523 81 0 2.0 6.0 0.00 0.00 0.00 48 1009.5
20260509232021 81 292 1.0 8.0 0.00 0.00 0.00 53 1009.6
20260509231547 81 257 2.0 9.0 0.00 0.00 0.00 52 1009.5
20260509231025 81 0 0.0 9.0 0.00 0.00 0.00 52 1009.6
20260509230521 80 246 3.0 9.0 0.00 0.00 0.00 52 1009.6
20260509230043 80 284 3.0 9.0 0.00 0.00 0.00 51 1009.6
20260509225523 81 247 1.0 9.0 0.00 0.00 0.00 50 1009.6
20260509225024 81 235 1.0 7.0 0.00 0.00 0.00 49 1009.6
20260509224543 81 300 1.0 7.0 0.00 0.00 0.00 50 1009.6
20260509224020 81 337 2.0 7.0 0.00 0.00 0.00 48 1009.6
20260509223522 81 226 2.0 7.0 0.00 0.00 0.00 49 1009.6
20260509223046 81 231 2.0 7.0 0.00 0.00 0.00 49 1009.7
20260509222522 82 194 0.0 7.0 0.00 0.00 0.00 48 1009.7
20260509222021 81 242 3.0 9.0 0.00 0.00 0.00 47 1009.7
20260509221540 80 257 4.0 9.0 0.00 0.00 0.00 48 1009.8
20260509221021 81 318 4.0 8.0 0.00 0.00 0.00 47 1009.8
20260509220521 83 306 1.0 8.0 0.00 0.00 0.00 46 1009.8
20260509220038 83 223 3.0 8.0 0.00 0.00 0.00 47 1010.0
20260509215521 83 206 2.0 7.0 0.00 0.00 0.00 48 1009.8
20260509215021 83 0 1.0 7.0 0.00 0.00 0.00 47 1009.9
20260509214548 82 203 1.0 7.0 0.00 0.00 0.00 45 1009.9
20260509214020 81 195 3.0 7.0 0.00 0.00 0.00 46 1010.0
20260509213520 83 192 2.0 7.0 0.00 0.00 0.00 47 1010.0
20260509213044 83 216 1.0 9.0 0.00 0.00 0.00 49 1010.0